VK2ADG-1 Weather Reports


Display with metric or nautical units.
time (UTC)temp
F
wind
direction
speed
MPH
gust
MPH
rain 1hr
in
rain 24hr
in
rain mn
in
humidity
%
barometer
mb
20260503174023 58 317 2.0 3.0 0.00 0.00 0.00 95 1015.8
20260503173021 58 322 3.0 4.0 0.00 0.00 0.00 95 1015.8
20260503172019 58 314 3.0 4.0 0.00 0.00 0.00 94 1015.9
20260503171015 58 313 3.0 5.0 0.00 0.00 0.00 94 1016.1
20260503131020 60 331 3.0 4.0 0.00 0.00 0.00 88 1017.1
20260503081030 66 335 2.0 4.0 0.00 0.00 0.00 73 1017.3
20260503072038 67 5 4.0 6.0 0.00 0.00 0.00 68 1017.0
20260503071036 68 13 4.0 8.0 0.00 0.00 0.00 68 1016.9
20260503055037 72 41 6.0 12.0 0.00 0.00 0.00 58 1017.1
20260503054035 73 36 6.0 11.0 0.00 0.00 0.00 56 1017.1
20260503053032 75 15 4.0 11.0 0.00 0.00 0.00 50 1017.2
20260503052030 75 14 3.0 8.0 0.00 0.00 0.00 49 1017.4
20260503051027 75 18 5.0 11.0 0.00 0.00 0.00 49 1017.4
20260503050044 75 13 4.0 10.0 0.00 0.00 0.00 48 1017.3
20260503045022 75 20 3.0 8.0 0.00 0.00 0.00 49 1017.4
20260503044020 74 16 6.0 11.0 0.00 0.00 0.00 50 1017.5
20260503043059 74 7 3.0 8.0 0.00 0.00 0.00 50 1017.6
20260503042056 74 5 5.0 13.0 0.00 0.00 0.00 50 1017.5
20260503041033 75 345 4.0 14.0 0.00 0.00 0.00 50 1017.5
20260503040030 75 12 5.0 12.0 0.00 0.00 0.00 50 1017.6
20260503035028 75 14 3.0 7.0 0.00 0.00 0.00 50 1017.7
20260503034026 73 341 3.0 9.0 0.00 0.00 0.00 53 1017.9
20260503033023 72 4 4.0 8.0 0.00 0.00 0.00 54 1018.2
20260503032042 72 6 4.0 12.0 0.00 0.00 0.00 54 1018.3
20260503031019 73 7 4.0 9.0 0.00 0.00 0.00 53 1018.5
20260503030017 73 2 4.0 9.0 0.00 0.00 0.00 54 1018.5
20260503025034 71 351 5.0 9.0 0.00 0.00 0.00 56 1018.7
20260503024054 72 17 7.0 12.0 0.00 0.00 0.00 56 1018.8
20260503023030 73 31 6.0 10.0 0.00 0.00 0.00 55 1019.1
20260503022048 72 9 4.0 10.0 0.00 0.00 0.00 55 1019.3
20260503021025 70 26 5.0 8.0 0.00 0.00 0.00 58 1019.5
20260503020044 70 16 3.0 5.0 0.00 0.00 0.00 58 1019.6
20260503015020 71 3 3.0 6.0 0.00 0.00 0.00 58 1019.8
20260503014018 71 17 4.0 8.0 0.00 0.00 0.00 58 1020.0
20260503013055 70 5 5.0 10.0 0.00 0.00 0.00 58 1019.9
20260503012033 71 13 6.0 10.0 0.00 0.00 0.00 58 1020.1
20260503011031 71 24 5.0 13.0 0.00 0.00 0.00 60 1020.2
20260503010028 70 45 5.0 10.0 0.00 0.00 0.00 61 1020.3
20260503005026 69 48 4.0 8.0 0.00 0.00 0.00 64 1020.4
20260503004024 68 32 3.0 9.0 0.00 0.00 0.00 66 1020.7
20260503003021 67 18 4.0 8.0 0.00 0.00 0.00 67 1020.7
20260503002101 67 21 4.0 10.0 0.00 0.00 0.00 69 1020.9
20260503001017 66 15 4.0 7.0 0.00 0.00 0.00 70 1020.9
20260503000035 64 23 4.0 7.0 0.00 0.00 0.00 73 1021.1
20260502235033 64 10 5.0 12.0 0.00 0.00 0.00 75 1021.1
20260502234030 63 16 5.0 9.0 0.00 0.00 0.00 76 1021.0
20260502233027 63 10 6.0 8.0 0.00 0.00 0.00 76 1021.1
20260502232024 62 9 5.0 11.0 0.00 0.00 0.00 77 1021.2
20260502231043 61 16 5.0 9.0 0.00 0.00 0.00 79 1021.1
20260502230020 60 11 4.0 9.0 0.00 0.00 0.00 81 1021.0
20260502225018 60 6 5.0 10.0 0.00 0.00 0.00 81 1021.1
20260502224036 59 22 5.0 9.0 0.00 0.00 0.00 82 1021.0
20260502223034 59 19 6.0 10.0 0.00 0.00 0.00 83 1021.1
20260502222031 59 9 5.0 8.0 0.00 0.00 0.00 83 1021.4
20260502221028 59 10 6.0 9.0 0.00 0.00 0.00 83 1021.3
20260502220027 58 18 4.0 7.0 0.00 0.00 0.00 84 1021.2
20260502215024 58 8 5.0 8.0 0.00 0.00 0.00 85 1021.1
20260502214021 58 1 5.0 8.0 0.00 0.00 0.00 85 1021.1
20260502213039 58 16 5.0 9.0 0.00 0.00 0.00 85 1020.9
20260502212037 58 15 4.0 8.0 0.00 0.00 0.00 86 1020.8
20260502211035 58 17 5.0 8.0 0.00 0.00 0.00 86 1020.9
20260502210032 58 4 4.0 6.0 0.00 0.00 0.00 85 1020.9
20260502205031 58 4 4.0 5.0 0.00 0.00 0.00 85 1020.6
20260502204028 58 5 4.0 6.0 0.00 0.00 0.00 85 1020.4
20260502203046 58 13 4.0 7.0 0.00 0.00 0.00 85 1020.3
20260502202023 58 42 6.0 11.0 0.00 0.00 0.00 84 1020.4
20260502201020 58 15 3.0 5.0 0.00 0.00 0.00 84 1020.3
20260502200039 58 27 5.0 10.0 0.00 0.00 0.00 84 1020.3
20260502195036 58 7 4.0 7.0 0.00 0.00 0.00 84 1020.3
20260502194035 58 13 4.0 8.0 0.00 0.00 0.00 84 1020.3
20260502193051 58 19 6.0 10.0 0.00 0.00 0.00 83 1020.2
20260502192029 58 22 5.0 9.0 0.00 0.00 0.00 82 1020.2
20260502191026 58 8 6.0 11.0 0.00 0.00 0.00 82 1019.9
20260502190023 59 27 6.0 8.0 0.00 0.00 0.00 82 1019.8
20260502185022 58 19 7.0 12.0 0.00 0.00 0.00 83 1019.8
20260502184020 58 18 6.0 10.0 0.00 0.00 0.00 84 1019.9
20260502183017 58 20 6.0 11.0 0.00 0.00 0.00 84 1019.9
20260502182035 58 16 5.0 10.0 0.00 0.00 0.00 85 1019.8
20260502181032 58 17 6.0 10.0 0.00 0.00 0.00 85 1020.0